HR2RCH-13 Weather Reports


Display with metric or nautical units.
time (UTC)temp
F
wind
direction
speed
MPH
gust
MPH
rain 1hr
in
rain 24hr
in
rain mn
in
humidity
%
barometer
mb
20260504081549 0 122 0.0 2.0 0.00 0.00 0.00 1010.1
20260504044548 0 57 1.0 3.0 0.00 0.00 0.00 1012.0
20260504043050 0 66 1.0 2.0 0.00 0.00 0.00 1012.2
20260504041545 0 65 1.0 3.0 0.00 0.00 0.00 1012.3
20260504040051 0 37 0.0 3.0 0.00 0.00 0.00 1012.3
20260504034545 0 49 1.0 2.0 0.00 0.00 0.00 1012.2
20260504033045 0 46 1.0 2.0 0.00 0.00 0.00 1012.0
20260504031548 0 37 0.0 2.0 0.00 0.00 0.00 1012.0
20260504030050 0 0 0.0 0.0 0.00 0.00 0.00 1012.0
20260504024601 0 252 1.0 3.0 0.00 0.00 0.00 1012.0
20260504023052 0 0 0.0 1.0 0.00 0.00 0.00 1012.0
20260504021546 0 0 0.0 3.0 0.00 0.00 0.00 1012.0
20260504020045 0 208 1.0 7.0 0.00 0.00 0.00 1012.0
20260504014548 0 261 1.0 4.0 0.00 0.00 0.00 1011.7
20260504013046 0 249 0.0 3.0 0.00 0.00 0.00 1011.4
20260504011550 0 269 2.0 6.0 0.00 0.00 0.00 1011.2
20260504010047 0 269 2.0 6.0 0.00 0.00 0.00 1011.1
20260504004547 0 261 3.0 8.0 0.00 0.00 0.00 1010.9
20260504003051 0 274 2.0 5.0 0.00 0.00 0.00 1010.7
20260504001550 0 276 2.0 4.0 0.00 0.00 0.00 1010.2
20260504000116 0 244 1.0 3.0 0.00 0.00 0.00 1009.8
20260503234557 0 251 2.0 12.0 0.00 0.00 0.00 1009.2
20260503233044 0 240 1.0 8.0 0.00 0.00 0.00 1008.6
20260503231546 0 183 1.0 7.0 0.00 0.00 0.00 1008.4
20260503230051 0 182 3.0 12.0 0.00 0.00 0.00 1008.3
20260503224549 0 281 4.0 9.0 0.00 0.00 0.00 1008.0
20260503223051 0 181 4.0 10.0 0.00 0.00 0.00 1007.7
20260503221554 0 243 3.0 9.0 0.00 0.00 0.00 1007.2
20260503220050 0 233 3.0 7.0 0.00 0.00 0.00 1007.1
20260503214546 0 264 5.0 9.0 0.00 0.00 0.00 1007.4
20260503213046 0 162 4.0 10.0 0.00 0.00 0.00 1007.6
20260503211552 0 263 4.0 11.0 0.00 0.00 0.00 1007.5
20260503210049 0 259 2.0 9.0 0.00 0.00 0.00 1007.6
20260503204548 0 156 5.0 10.0 0.00 0.00 0.00 1007.8
20260503203104 0 278 3.0 9.0 0.00 0.00 0.00 1008.1
20260503201548 0 0 3.0 10.0 0.00 0.00 0.00 1008.2
20260503200048 0 193 2.0 8.0 0.00 0.00 0.00 1008.6
20260503194553 0 248 3.0 7.0 0.00 0.00 0.00 1008.8
20260503193051 0 132 3.0 9.0 0.00 0.00 0.00 1009.0
20260503191547 0 144 3.0 9.0 0.00 0.00 0.00 1009.3
20260503190047 0 259 5.0 13.0 0.00 0.00 0.00 1009.5
20260503184546 0 267 2.0 8.0 0.00 0.00 0.00 1010.0
20260503183116 0 244 3.0 6.0 0.00 0.00 0.00 1010.1
20260503181551 0 146 2.0 6.0 0.00 0.00 0.00 1010.4
20260503180044 0 86 0.0 6.0 0.00 0.00 0.00 1010.6
20260503174552 0 154 3.0 10.0 0.00 0.00 0.00 1011.0
20260503173056 0 259 1.0 6.0 0.00 0.00 0.00 1011.4
20260503171549 0 210 2.0 8.0 0.00 0.00 0.00 1011.7